This is the latest recevied weather packets stored in our database for station/object W4DHW-4. If no packets are shown the sender has not sent any weather packets the latest 10 day(s).
| Time | Temp. | Humidity | Pressure | Rain* | Wind** | Luminosity | Snow |
|---|---|---|---|---|---|---|---|
| 1778085303 | 19.44° C | 79% | 1011.6 hPa | 0 mm | - | 224 W/m² | - |
| 1778084997 | 19.44° C | 80% | 1011.6 hPa | 0 mm | - | 219 W/m² | - |
| 1778084695 | 20° C | 79% | 1011.6 hPa | 0 mm | - | 263 W/m² | - |
| 1778084392 | 20° C | 79% | 1011.4 hPa | 0 mm | - | 311 W/m² | - |
| 1778084089 | 20° C | 79% | 1011.4 hPa | 0 mm | - | 433 W/m² | - |
| 1778083786 | 19.44° C | 80% | 1011.4 hPa | 0 mm | - | 536 W/m² | - |
| 1778083483 | 18.89° C | 80% | 1011.5 hPa | 0 mm | - | 415 W/m² | - |
| 1778083181 | 18.89° C | 81% | 1011.8 hPa | 0 mm | - | 401 W/m² | - |
| 1778082879 | 18.89° C | 81% | 1011.3 hPa | 0 mm | - | 377 W/m² | - |
| 1778081765 | 18.33° C | 83% | 1012.1 hPa | 0 mm | - | 254 W/m² | - |
| 1778081463 | 18.33° C | 84% | 1012.1 hPa | 0 mm | - | 360 W/m² | - |
| 1778081159 | 18.33° C | 84% | 1011.8 hPa | 0 mm | - | 481 W/m² | - |
| 1778080858 | 18.33° C | 86% | 1012 hPa | 0 mm | - | 415 W/m² | - |
| 1778080555 | 17.78° C | 87% | 1011.5 hPa | 0 mm | - | 357 W/m² | - |
| 1778080252 | 17.78° C | 88% | 1011.6 hPa | 0 mm | - | 262 W/m² | - |
| 1778079948 | 17.22° C | 89% | 1011.6 hPa | 0 mm | - | 248 W/m² | - |
| 1778079646 | 17.22° C | 91% | 1011.6 hPa | 0 mm | - | 229 W/m² | - |
| 1778079342 | 16.67° C | 91% | 1011.5 hPa | 0 mm | - | 208 W/m² | - |
| 1778079040 | 16.67° C | 92% | 1011.3 hPa | 0 mm | - | 236 W/m² | - |
| 1778078737 | 16.67° C | 92% | 1011.6 hPa | 0 mm | - | 211 W/m² | - |
| 1778078434 | 16.11° C | 93% | 1011.5 hPa | 0 mm | - | 212 W/m² | - |
| 1778078132 | 16.11° C | 94% | 1011.3 hPa | 0 mm | - | 255 W/m² | - |
| 1778077830 | 16.11° C | 94% | 1011.7 hPa | 0 mm | - | 293 W/m² | - |
| 1778077527 | 16.11° C | 94% | 1011.8 hPa | 0 mm | - | 315 W/m² | - |
| 1778077225 | 15.56° C | 94% | 1011.9 hPa | 0 mm | - | 168 W/m² | - |
* Rain latest hour (hover to see other rain measurements)
** Current wind speed in m/s (hover to see current wind gust speed)